This demonstration page uses our WeatherBlox Daily Observations layout. Learn more.

Left ArrowRight Arrow

Hourly Observations for November 25, 2021

Temp ( °F °C ) Dew Point ( °F °C ) Humidity (%) Winds ( mph kmh ) Pressure ( in mb ) Visibility ( mi km ) Precip ( " mm )
12:56 am 00:56 Cloudy 30 -1.1 22 -5.6 72 72 N 17 28 30.45 1031 10 16 0.00 0.00
1:56 am 01:56 Partly Cloudy 28 -2.2 20 -6.7 72 72 NNW 12 19 30.47 1032 10 16 0.00 0.00
2:56 am 02:56 Clear 24 -4.4 17 -8.3 75 75 NNW 13 20 30.49 1033 10 16 0.00 0.00
3:56 am 03:56 Clear 22 -5.6 16 -8.9 78 78 NW 10 17 30.51 1033 10 16 0.00 0.00
4:56 am 04:56 Clear 20 -6.7 15 -9.4 81 81 NNW 13 20 30.51 1033 10 16 0.00 0.00
5:56 am 05:56 Clear 18 -7.8 14 -10 84 84 NNW 9 15 30.53 1034 10 16 0.00 0.00
6:56 am 06:56 Clear 17 -8.3 13 -10.6 84 84 NW 10 17 30.55 1035 10 16 0.00 0.00
7:56 am 07:56 Sunny 17 -8.3 12 -11.1 80 80 NW 8 13 30.57 1035 10 16 0.00 0.00
8:56 am 08:56 Sunny 20 -6.7 14 -10 78 78 NW 10 17 30.58 1035 10 16 0.00 0.00
9:56 am 09:56 Sunny 23 -5 15 -9.4 72 72 NW 9 15 30.57 1035 10 16 0.00 0.00
10:56 am 10:56 Sunny 27 -2.8 15 -9.4 61 61 WNW 6 9 30.56 1035 10 16 0.00 0.00
11:56 am 11:56 Sunny 31 -0.6 15 -9.4 52 52 WSW 5 7 30.52 1033 10 16 0.00 0.00
12:56 pm 12:56 Sunny 36 2.2 13 -10.6 39 39 W 3 6 30.48 1032 10 16 0.00 0.00
1:56 pm 13:56 Sunny 38 3.3 16 -8.9 41 41 Calm 30.44 1031 10 16 0.00 0.00
2:56 pm 14:56 Sunny 40 4.4 19 -7.2 43 43 SSW 9 15 30.40 1030 10 16 0.00 0.00
3:56 pm 15:56 Sunny 41 5 20 -6.7 43 43 SSW 13 20 30.38 1029 10 16 0.00 0.00
4:56 pm 16:56 Sunny 39 3.9 21 -6.1 48 48 SSW 8 13 30.37 1029 10 16 0.00 0.00
5:56 pm 17:56 Clear 32 0 19 -7.2 59 59 S 6 9 30.38 1029 10 16 0.00 0.00
6:56 pm 18:56 Clear 27 -2.8 19 -7.2 72 72 S 10 17 30.36 1028 10 16 0.00 0.00
7:56 pm 19:56 Clear 32 0 20 -6.7 61 61 S 12 19 30.34 1027 10 16 0.00 0.00
8:56 pm 20:56 Mostly Cloudy 35 1.7 20 -6.7 54 54 SSW 17 28 30.29 1026 10 16 0.00 0.00
9:56 pm 21:56 Clear 31 -0.6 21 -6.1 67 67 S 12 19 30.27 1025 10 16 0.00 0.00
10:56 pm 22:56 Clear 34 1.1 21 -6.1 59 59 SSW 15 24 30.22 1024 10 16 0.00 0.00
11:56 pm 23:56 Clear 34 1.1 21 -6.1 59 59 SSW 12 19 30.21 1023 10 16 0.00 0.00

Powered by AerisWeather